Location: Unspecified
(0.0000°N, 0.0000°E)
Time: 18:32:18
(UTC+00:00)

Vanguard 1 Rocket - Pass Details

Date: 23 April 2026
Orbit: 655 x 4212 km, 34.3° (Epoch: 17 May)

Event Time Altitude Azimuth Distance (km) Brightness Sun altitude
Rises 22:19:19 0° 299° (WNW) 8,040 12.6 -62.3°
Reaches altitude 10° 22:27:47 10° 314° (NW) 7,319 12.2 -64.2°
Maximum altitude 22:45:11 21° 357° (N) 6,314 11.6 -67.8°
Drops below altitude 10° 23:00:24 10° 40° (NE) 6,397 11.6 -70.8°
Sets 23:06:56 0° 56° (NE) 6,839 11.8 -72.0°
